This demonstration page uses our WeatherBlox Daily Observations layout. Learn more.

Hourly Observations for April 22, 2017

Temp ( °F °C ) Dew Point ( °F °C ) Humidity (%) Winds ( mph kmh ) Pressure ( in mb ) Visibility ( mi km ) Precip ( " mm )
12:15 am 00:15 Clear 44 6.5 35 1.5 71 71 N 6 9 30.24 1024 10 16.0934 0 0
12:35 am 00:35 Mostly Cloudy 43 6.1 35 1.6 73 73 N 5 7 30.24 1024 10 16.0934 0 0
12:55 am 00:55 Partly Cloudy 43 6.1 35 1.6 73 73 N 5 7 30.27 1025 10 16.0934 0 0
1:15 am 01:15 Partly Cloudy 44 6.4 35 1.5 71 71 N 6 9 30.27 1025 10 16.0934 0 0
1:35 am 01:35 Clear 43 6 34 1.2 72 72 N 7 11 30.27 1025 10 16.0934 0 0
1:55 am 01:55 Clear 42 5.6 34 1.1 73 73 N 5 7 30.27 1025 10 16.0934 0 0
2:15 am 02:15 Clear 40 4.6 33 0.8 77 77 N 5 7 30.3 1026 10 16.0934 0 0
2:35 am 02:35 Partly Cloudy 38 3.6 33 0.5 80 80 N 6 9 30.3 1026 10 16.0934 0 0
2:55 am 02:55 Clear 38 3.3 33 0.5 82 82 N 6 9 30.27 1025 10 16.0934 0 0
3:15 am 03:15 Clear 38 3.5 33 0.8 83 83 N 7 11 30.27 1025 10 16.0934 0 0
3:35 am 03:35 Clear 40 4.5 34 1 78 78 N 7 11 30.24 1024 10 16.0934 0 0
3:55 am 03:55 Clear 40 4.3 34 1.1 80 80 N 7 11 30.27 1025 10 16.0934 0 0
4:15 am 04:15 Clear 40 4.2 34 1.1 80 80 NNW 7 11 30.3 1026 10 16.0934 0 0
4:35 am 04:35 Clear 39 4.1 34 1 80 80 N 7 11 30.3 1026 10 16.0934 0 0
4:55 am 04:55 Clear 39 3.7 33 0.8 82 82 N 6 9 30.3 1026 10 16.0934 0 0
5:15 am 05:15 Clear 38 3.5 33 0.7 82 82 N 5 7 30.3 1026 10 16.0934 0 0
5:35 am 05:35 Clear 38 3.3 33 0.6 83 83 N 7 11 30.3 1026 10 16.0934 0 0
5:55 am 05:55 Clear 37 3 33 0.6 84 84 N 6 9 30.3 1026 10 16.0934 0 0
6:15 am 06:15 Clear 37 3 33 0.7 85 85 NNW 5 7 30.3 1026 10 16.0934 0 0
6:35 am 06:35 Clear 37 2.7 33 0.6 86 86 NNW 5 7 30.3 1026 10 16.0934 0 0
6:55 am 06:55 Sunny 37 2.5 33 0.5 87 87 NNW 6 9 30.3 1026 10 16.0934 0 0
7:15 am 07:15 Sunny 37 2.6 33 0.7 87 87 NNW 7 11 30.33 1027 10 16.0934 0 0
7:35 am 07:35 Sunny 37 2.8 34 1 88 88 NNW 6 9 30.33 1027 10 16.0934 0 0
7:55 am 07:55 Sunny 40 4.3 36 2 85 85 NNW 3 6 30.33 1027 10 16.0934 0 0
8:15 am 08:15 Sunny 42 5.3 36 2.4 82 82 N 5 7 30.3 1026 10 16.0934 0 0
8:35 am 08:35 Sunny 45 7 37 2.8 75 75 N 7 11 30.33 1027 10 16.0934 0 0
8:55 am 08:55 Sunny 46 7.7 37 2.9 72 72 N 5 7 30.33 1027 10 16.0934 0 0
9:15 am 09:15 Sunny 48 8.7 37 3 68 68 NNE 7 11 30.3 1026 10 16.0934 0 0
9:35 am 09:35 Sunny 48 9.1 37 2.6 64 64 NNE 6 9 30.3 1026 10 16.0934 0 0
9:55 am 09:55 Sunny 50 10.2 36 2 57 57 NNE 7 11 30.3 1026 10 16.0934 0 0
10:15 am 10:15 Sunny 52 11.1 35 1.9 53 53 NE 9 15 30.3 1026 10 16.0934 0 0
10:35 am 10:35 Partly Cloudy 53 11.4 35 1.5 51 51 NNE 6 9 30.3 1026 10 16.0934 0 0
10:55 am 10:55 Partly Cloudy 53 11.6 33 0.3 46 46 N 12 19 30.3 1026 10 16.0934 0 0
11:15 am 11:15 Partly Cloudy 54 12.2 31 -0.6 42 42 ENE 3 6 30.27 1025 10 16.0934 0 0
11:35 am 11:35 Sunny 54 12.2 30 -1.1 40 40 NNE 9 15 30.27 1025 10 16.0934 0 0
11:55 am 11:55 Sunny 55 12.9 28 -2 36 36 N 5 7 30.27 1025 10 16.0934 0 0
12:15 pm 12:15 Sunny 56 13.5 30 -0.9 37 37 N 3 6 30.27 1025 10 16.0934 0 0
12:35 pm 12:35 Sunny 57 13.7 30 -0.9 37 37 ENE 9 15 30.27 1025 10 16.0934 0 0
12:55 pm 12:55 Sunny 58 14.2 30 -1 35 35 NNE 3 6 30.27 1025 10 16.0934 0 0
1:15 pm 13:15 Partly Cloudy 57 14.1 28 -2 33 33 NE 8 13 30.24 1024 10 16.0934 0 0
1:35 pm 13:35 Sunny 58 14.2 29 -1.6 34 34 ENE 6 9 30.24 1024 10 16.0934 0 0
1:55 pm 13:55 Sunny 58 14.2 28 -2.2 32 32 N 5 7 30.24 1024 10 16.0934 0 0
2:15 pm 14:15 Partly Cloudy 58 14.3 28 -2.2 32 32 ENE 9 15 30.24 1024 10 16.0934 0 0
2:35 pm 14:35 Partly Cloudy 60 15.5 28 -2 30 30 NNE 5 7 30.21 1023 10 16.0934 0 0
2:55 pm 14:55 Partly Cloudy 60 15.4 28 -2.4 30 30 Calm 30.18 1022 10 16.0934 0 0
3:15 pm 15:15 Partly Cloudy 59 14.9 28 -2.5 30 30 NE 6 9 30.18 1022 10 16.0934 0 0
3:35 pm 15:35 Sunny 61 15.9 29 -1.5 31 31 NE 7 11 30.18 1022 10 16.0934 0 0
3:55 pm 15:55 Sunny 61 16 28 -2.4 28 28 WNW 5 7 30.18 1022 10 16.0934 0 0
4:15 pm 16:15 Partly Cloudy 61 16.1 29 -1.7 30 30 NW 5 7 30.18 1022 10 16.0934 0 0
4:35 pm 16:35 Partly Cloudy 61 16.3 28 -2 29 29 N 6 9 30.15 1021 10 16.0934 0 0
4:55 pm 16:55 Sunny 62 16.6 28 -2.4 27 27 NE 8 13 30.15 1021 10 16.0934 0 0
5:15 pm 17:15 Sunny 62 16.4 27 -3 26 26 N 6 9 30.15 1021 10 16.0934 0 0
5:35 pm 17:35 Sunny 61 16.3 26 -3.4 26 26 Calm 30.15 1021 10 16.0934 0 0
5:55 pm 17:55 Sunny 61 16.2 26 -3.6 26 26 SSE 3 6 30.15 1021 10 16.0934 0 0
6:15 pm 18:15 Sunny 62 16.5 26 -3.3 26 26 ENE 8 13 30.15 1021 10 16.0934 0 0
6:35 pm 18:35 Sunny 61 16.3 25 -4.1 25 25 NE 8 13 30.15 1021 10 16.0934 0 0
6:55 pm 18:55 Sunny 61 16.2 24 -4.6 24 24 E 3 6 30.15 1021 10 16.0934 0 0
7:15 pm 19:15 Sunny 61 16 25 -4.1 25 25 Calm 30.15 1021 10 16.0934 0 0
7:35 pm 19:35 Sunny 60 15.4 26 -3.2 28 28 Calm 30.15 1021 10 16.0934 0 0
7:55 pm 19:55 Sunny 59 14.9 27 -2.7 30 30 ESE 3 6 30.15 1021 10 16.0934 0 0
8:15 pm 20:15 Sunny 57 13.9 26 -3.2 31 31 Calm 30.18 1022 10 16.0934 0 0
8:35 pm 20:35 Clear 55 12.8 26 -3.2 33 33 Calm 30.18 1022 10 16.0934 0 0
8:55 pm 20:55 Clear 54 12.4 26 -3.6 33 33 Calm 30.18 1022 10 16.0934 0 0
9:15 pm 21:15 Clear 52 10.9 26 -3.1 38 38 Calm 30.21 1023 7 11.26538 0 0
9:35 pm 21:35 Clear 53 11.6 26 -3.3 35 35 Calm 30.18 1022 10 16.0934 0 0
9:55 pm 21:55 Clear 50 10.2 26 -3.1 39 39 Calm 30.24 1024 10 16.0934 0 0
10:15 pm 22:15 Clear 49 9.7 26 -3.1 41 41 Calm 30.24 1024 10 16.0934 0 0
10:35 pm 22:35 Clear 51 10.8 25 -3.7 36 36 Calm 30.24 1024 10 16.0934 0 0
10:55 pm 22:55 Clear 50 9.8 26 -3.4 40 40 Calm 30.24 1024 10 16.0934 0 0
11:15 pm 23:15 Clear 49 9.2 26 -3.5 41 41 SSE 5 7 30.24 1024 10 16.0934 0 0
11:35 pm 23:35 Clear 46 7.6 26 -3.5 46 46 S 6 9 30.24 1024 10 16.0934 0 0
11:55 pm 23:55 Clear 45 7.3 25 -3.8 46 46 S 3 6 30.24 1024 10 16.0934 0 0

Powered by AerisWeather